Hourly Data Report for November 24, 2016

CARBERRY CS
MANITOBA

49°54'20.900" N
99°21'26.800" W
383.50 m
5010547
71170
WZE

Download Data

Hourly Data (November 2016)
Hourly Data Report for November 24, 2016
TIME
LST
Temp Definition
°C
Dew Point Definition
°C
Rel Hum Definition
%
Precip. Amount Definition
mm

Wind Dir Definition
10's deg

Wind Spd Definition
km/h
Visibility Definition
km
Stn Press Definition
kPa
Hmdx Definition


Wind Chill Definition


Weather Definition


00:00 -0.6 -0.8 98 0.0 3 8   97.48   -3 LegendNANA
01:00 -0.6 -0.8 98 0.0 3 6   97.47   -3 LegendNANA
02:00 -0.5 -0.7 98 0.0 3 6   97.47   -3 LegendNANA
03:00 -0.4 -0.6 98 0.0 3 6   97.47   -2 LegendNANA
04:00 -0.4 -0.6 98 0.0 2 5   97.47   -2 LegendNANA
05:00 -0.3 -0.5 99 0.0 2 6   97.46   -2 LegendNANA
06:00 -0.2 -0.4 99 0.0 3 7   97.47   -3 LegendNANA
07:00 -0.2 -0.4 99 0.0 4 6   97.49   -2 LegendNANA
08:00 -0.2 -0.4 99 0.0 2 5   97.51   -2 LegendNANA
09:00 -0.1 -0.3 99 0.0 3 5   97.54   -2 LegendNANA
10:00 -0.1 -0.3 99 0.0 4 3   97.57   -1 LegendNANA
11:00 0.0 -0.2 99 0.0   0   97.56     LegendNANA
12:00 0.1 -0.1 99 0.0   0   97.52     LegendNANA
13:00 0.2 0.0 98 0.0 25 1   97.47     LegendNANA
14:00 0.5 0.1 97 0.0 25 4   97.45     LegendNANA
15:00 0.5 0.1 97 0.0 27 5   97.46     LegendNANA
16:00 0.6 0.0 96 0.0 25 5   97.48     LegendNANA
17:00 0.4 -0.1 96 0.0 22 2   97.49     LegendNANA
18:00 0.2 -0.3 96 0.0 19 2   97.47     LegendNANA
19:00 -0.4 -0.9 97 0.0 12 5   97.46   -2 LegendNANA
20:00 -0.7 -1.1 97 0.0 15 6   97.45   -3 LegendNANA
21:00 -2.0 -2.4 98 0.0 14 7   97.42   -5 LegendNANA
22:00 -1.2 -1.4 98 0.0 18 6   97.42   -3 LegendNANA
23:00 -0.9 -1.4 97 0.0 13 6   97.42   -3 LegendNANA

Notes on Data Quality.

Legend

  • E = Estimated
  • M = Missing
  • NA = Not Available*
  • [empty] = Indicates an unobserved value
Date modified: